Location: Clearlake Highlands
(38.9555°N, 122.6428°W)
Time: 14:23:23
(UTC+00:00)

Daily predictions for brighter satellites

Satellite Brightness Start Highest point End
(mag) Time Altitude Azimuth Time Altitude Azimuth Time Altitude Azimuth
CZ-3B R/B 1.0 12:01:27 10° NW 12:04:15 72° NE 12:06:28 10° SE
SeaSat 1 3.1 12:00:45 10° N 12:05:23 42° WNW 12:09:59 10° SW
Cosmos 2228 Rocket 3.3 12:01:13 10° NNW 12:05:35 54° W 12:09:54 10° S
IDEFIX/ARIANE 42P 4.0 12:03:08 10° NNW 12:07:02 22° WNW 12:10:55 10° WSW
Cosmos 1833 Rocket 3.8 12:02:44 10° WSW 12:07:37 30° WNW 12:12:34 10° N
USA 281 3.6 12:03:39 10° S 12:09:50 44° WSW 12:16:04 10° NW
Genesis I 3.6 12:06:52 10° NW 12:10:43 43° WSW 12:14:33 10° S
Meteor 1-20 Rocket 4.2 12:06:18 10° SSW 12:11:49 77° W 12:17:18 10° N
FENGYUN 3A 3.9 12:06:58 10° NNE 12:12:25 74° ESE 12:17:50 10° S
CZ-2D R/B 4.1 12:08:39 10° N 12:12:29 38° WNW 12:16:13 10° SW
Cosmos 1980 Rocket 2.3 12:07:14 10° NNW 12:12:52 83° ENE 12:18:27 10° SSE
Cosmos 2278 4.1 12:07:54 10° NNW 12:13:34 70° ENE 12:19:10 10° SSE
